When you browse on this site, cookies collect data to enhance your experience and personalize the content and advertising you see.
Visit our Privacy Policy to learn more. By continuing to use the site, you agree to this use of cookies and data.
  • Em Portugal
  • Lista de países
  • Para 7 dias
  • Temperatura da água
  • Mapas de satélite
  • Mapa do tempo
  • Widgets de tempo
  • user-avatar
    Iniciar Sessão

    Previsão horária em Krasnoarmeysk

    Hoje, 17 Fevereiro, Domingo

    Tempo Temperatura Precipitação Vento Pressão Humidade
    00:00 -1°C° 0 mm 3 m/s 747 mmHg 93%
    01:00 -1°C° 0 mm 3 m/s 746 mmHg 93%
    02:00 -2°C° 0 mm 4 m/s 746 mmHg 94%
    03:00 -2°C° 0 mm 4 m/s 746 mmHg 94%
    04:00 -3°C° 0 mm 4 m/s 746 mmHg 94%
    05:00 -3°C° 0 mm 4 m/s 745 mmHg 95%
    06:00 -2°C° 0 mm 5 m/s 745 mmHg 93%
    07:00 -2°C° 0 mm 5 m/s 745 mmHg 92%
    08:00 -3°C° 0 mm 6 m/s 745 mmHg 91%
    09:00 -2°C° 0 mm 6 m/s 744 mmHg 88%
    10:00 +1°C° 0 mm 6 m/s 744 mmHg 85%
    11:00 +2°C° 0 mm 6 m/s 743 mmHg 82%
    12:00 +3°C° 0 mm 7 m/s 743 mmHg 77%
    13:00 +4°C° 0 mm 7 m/s 742 mmHg 72%
    14:00 +6°C° 0 mm 7 m/s 742 mmHg 67%
    15:00 +5°C° 0 mm 7 m/s 741 mmHg 68%
    16:00 +4°C° 0 mm 7 m/s 741 mmHg 70%
    17:00 +3°C° 0 mm 7 m/s 741 mmHg 71%
    18:00 +2°C° 0 mm 7 m/s 741 mmHg 77%
    19:00 0°C° 0 mm 7 m/s 741 mmHg 82%
    20:00 -1°C° 0 mm 7 m/s 741 mmHg 88%
    21:00 -1°C° 0.1 mm 7 m/s 741 mmHg 87%
    22:00 -1°C° 0.1 mm 7 m/s 741 mmHg 86%
    23:00 -1°C° 0.1 mm 6 m/s 741 mmHg 86%

    Amanhã, 18 Fevereiro, Segunda-feira

    Tempo Temperatura Precipitação Vento Pressão Humidade
    00:00 -1°C° 0 mm 6 m/s 741 mmHg 85%
    01:00 -2°C° 0 mm 6 m/s 741 mmHg 84%
    02:00 -2°C° 0 mm 7 m/s 742 mmHg 83%
    03:00 -2°C° 0 mm 7 m/s 742 mmHg 81%
    04:00 -2°C° 0 mm 7 m/s 742 mmHg 79%
    05:00 -3°C° 0 mm 7 m/s 742 mmHg 77%
    06:00 -3°C° 0 mm 7 m/s 743 mmHg 78%
    07:00 -4°C° 0 mm 6 m/s 743 mmHg 80%
    08:00 -4°C° 0 mm 6 m/s 744 mmHg 81%
    09:00 -4°C° 0 mm 6 m/s 744 mmHg 77%
    10:00 -3°C° 0 mm 6 m/s 744 mmHg 72%
    11:00 -2°C° 0 mm 6 m/s 745 mmHg 68%
    12:00 -2°C° 0 mm 6 m/s 745 mmHg 68%
    13:00 -2°C° 0 mm 6 m/s 745 mmHg 67%
    14:00 -2°C° 0 mm 6 m/s 745 mmHg 67%
    15:00 -3°C° 0 mm 6 m/s 745 mmHg 68%
    16:00 -4°C° 0 mm 6 m/s 746 mmHg 70%
    17:00 -4°C° 0 mm 6 m/s 746 mmHg 72%
    18:00 -5°C° 0 mm 6 m/s 747 mmHg 71%
    19:00 -5°C° 0 mm 6 m/s 747 mmHg 71%
    20:00 -5°C° 0 mm 6 m/s 748 mmHg 71%
    21:00 -6°C° 0 mm 5 m/s 748 mmHg 70%
    22:00 -6°C° 0 mm 5 m/s 749 mmHg 69%
    23:00 -6°C° 0 mm 5 m/s 749 mmHg 68%

    Depois de amanhã, 19 Fevereiro, Terça-feira

    Tempo Temperatura Precipitação Vento Pressão Humidade
    00:00 -5°C° 0 mm 4 m/s 750 mmHg 67%
    01:00 -5°C° 0 mm 4 m/s 750 mmHg 66%
    02:00 -7°C° 0 mm 4 m/s 750 mmHg 64%
    03:00 -6°C° 0 mm 3 m/s 750 mmHg 65%
    04:00 -6°C° 0 mm 3 m/s 751 mmHg 66%
    05:00 -6°C° 0 mm 3 m/s 751 mmHg 67%
    06:00 -6°C° 0 mm 3 m/s 751 mmHg 67%
    07:00 -6°C° 0 mm 3 m/s 752 mmHg 66%
    08:00 -6°C° 0 mm 3 m/s 752 mmHg 66%
    09:00 -5°C° 0 mm 3 m/s 752 mmHg 61%
    10:00 -4°C° 0 mm 2 m/s 753 mmHg 56%
    11:00 -3°C° 0 mm 2 m/s 753 mmHg 50%
    12:00 -2°C° 0 mm 2 m/s 753 mmHg 48%
    13:00 -2°C° 0 mm 2 m/s 753 mmHg 46%
    14:00 +1°C° 0 mm 1 m/s 753 mmHg 44%
    15:00 0°C° 0 mm 1 m/s 753 mmHg 48%
    16:00 -1°C° 0 mm 1 m/s 753 mmHg 52%
    17:00 -1°C° 0 mm 1 m/s 752 mmHg 56%
    18:00 -2°C° 0 mm 1 m/s 752 mmHg 59%
    19:00 -4°C° 0 mm 2 m/s 752 mmHg 62%
    20:00 -4°C° 0 mm 2 m/s 753 mmHg 65%
    21:00 -4°C° 0 mm 2 m/s 752 mmHg 66%
    22:00 -5°C° 0 mm 3 m/s 752 mmHg 67%
    23:00 -5°C° 0 mm 3 m/s 752 mmHg 68%

    20 Fevereiro, Quarta-feira

    Tempo Temperatura Precipitação Vento Pressão Humidade
    00:00 -5°C° 0 mm 3 m/s 752 mmHg 68%
    01:00 -5°C° 0 mm 3 m/s 752 mmHg 68%
    02:00 -5°C° 0 mm 3 m/s 751 mmHg 68%
    03:00 -5°C° 0 mm 3 m/s 751 mmHg 69%
    04:00 -5°C° 0 mm 3 m/s 751 mmHg 69%
    05:00 -6°C° 0 mm 3 m/s 750 mmHg 69%
    06:00 -5°C° 0 mm 3 m/s 750 mmHg 66%
    07:00 -5°C° 0 mm 4 m/s 750 mmHg 64%
    08:00 -5°C° 0 mm 4 m/s 750 mmHg 61%
    09:00 -4°C° 0 mm 5 m/s 749 mmHg 58%
    10:00 -2°C° 0 mm 5 m/s 749 mmHg 55%
    11:00 -1°C° 0 mm 5 m/s 749 mmHg 51%
    12:00 0°C° 0 mm 5 m/s 748 mmHg 50%
    13:00 +1°C° 0 mm 5 m/s 748 mmHg 48%
    14:00 +2°C° 0 mm 5 m/s 747 mmHg 47%
    15:00 +1°C° 0 mm 5 m/s 747 mmHg 55%
    16:00 0°C° 0 mm 4 m/s 746 mmHg 63%
    17:00 -1°C° 0 mm 4 m/s 746 mmHg 72%
    18:00 -1°C° 0.1 mm 4 m/s 746 mmHg 76%
    19:00 -1°C° 0.1 mm 5 m/s 746 mmHg 80%
    20:00 -1°C° 0.1 mm 5 m/s 746 mmHg 85%
    21:00 0°C° 0.1 mm 5 m/s 745 mmHg 88%
    22:00 0°C° 0.1 mm 5 m/s 745 mmHg 91%
    23:00 -1°C° 0.1 mm 6 m/s 745 mmHg 93%

    21 Fevereiro, Quinta-feira

    Tempo Temperatura Precipitação Vento Pressão Humidade
    00:00 0°C° 0.2 mm 5 m/s 745 mmHg 94%
    01:00 0°C° 0.2 mm 5 m/s 744 mmHg 95%
    02:00 0°C° 0.2 mm 5 m/s 744 mmHg 95%
    03:00 0°C° 0 mm 5 m/s 744 mmHg 95%
    04:00 -1°C° 0 mm 5 m/s 744 mmHg 94%
    05:00 -1°C° 0 mm 5 m/s 743 mmHg 93%
    06:00 -1°C° 0 mm 5 m/s 743 mmHg 91%
    07:00 -1°C° 0 mm 5 m/s 743 mmHg 89%
    08:00 -2°C° 0 mm 6 m/s 743 mmHg 86%
    09:00 -1°C° 0 mm 6 m/s 743 mmHg 84%
    10:00 -1°C° 0 mm 6 m/s 743 mmHg 81%
    11:00 -1°C° 0 mm 6 m/s 743 mmHg 79%
    12:00 0°C° 0.1 mm 7 m/s 743 mmHg 75%
    13:00 0°C° 0.1 mm 7 m/s 743 mmHg 71%
    14:00 +2°C° 0.1 mm 7 m/s 743 mmHg 68%
    15:00 0°C° 0.1 mm 7 m/s 743 mmHg 70%
    16:00 0°C° 0.1 mm 7 m/s 742 mmHg 72%
    17:00 -1°C° 0.1 mm 7 m/s 742 mmHg 74%
    18:00 -2°C° 0.1 mm 7 m/s 743 mmHg 73%
    19:00 -2°C° 0.1 mm 7 m/s 743 mmHg 73%
    20:00 -3°C° 0.1 mm 7 m/s 743 mmHg 72%
    21:00 -4°C° 0 mm 7 m/s 744 mmHg 72%
    22:00 -6°C° 0 mm 7 m/s 744 mmHg 72%
    23:00 -6°C° 0 mm 7 m/s 745 mmHg 72%

    22 Fevereiro, Sexta-feira

    Tempo Temperatura Precipitação Vento Pressão Humidade
    00:00 -6°C° 0 mm 6 m/s 745 mmHg 69%
    01:00 -7°C° 0 mm 5 m/s 746 mmHg 66%
    02:00 -8°C° 0 mm 4 m/s 746 mmHg 62%
    03:00 -8°C° 0 mm 4 m/s 746 mmHg 63%
    04:00 -8°C° 0 mm 4 m/s 747 mmHg 63%
    05:00 -8°C° 0 mm 4 m/s 747 mmHg 64%
    06:00 -8°C° 0 mm 4 m/s 747 mmHg 63%
    07:00 -8°C° 0 mm 4 m/s 747 mmHg 63%
    08:00 -7°C° 0 mm 4 m/s 748 mmHg 62%
    09:00 -7°C° 0 mm 4 m/s 748 mmHg 57%
    10:00 -5°C° 0 mm 3 m/s 748 mmHg 53%
    11:00 -4°C° 0 mm 3 m/s 748 mmHg 49%
    12:00 -4°C° 0 mm 3 m/s 748 mmHg 48%
    13:00 -3°C° 0 mm 4 m/s 747 mmHg 48%
    14:00 -3°C° 0 mm 4 m/s 747 mmHg 48%
    15:00 -4°C° 0 mm 4 m/s 747 mmHg 52%
    16:00 -4°C° 0 mm 3 m/s 747 mmHg 57%
    17:00 -5°C° 0 mm 3 m/s 747 mmHg 61%
    18:00 -5°C° 0 mm 3 m/s 748 mmHg 63%
    19:00 -6°C° 0 mm 3 m/s 748 mmHg 65%
    20:00 -6°C° 0 mm 3 m/s 748 mmHg 67%
    21:00 -6°C° 0 mm 3 m/s 748 mmHg 68%
    22:00 -7°C° 0 mm 4 m/s 749 mmHg 68%
    23:00 -7°C° 0 mm 4 m/s 749 mmHg 68%
    Mostrar mais